,,,PA_Meas_PMT16A,,PR_Meas_QMR101_102,,RH_Meas_QMH101,,SR_Meas_QMS101,,TA_Meas_QMH101,,GenWind,,GenWind,
date,time,status,PA,status,PR,status,RH,status,SR,status,TA,status,DirAvg,status,SpdAvg,
2009-05-06, 00:00:04,VALID,1001.36,VALID,0,VALID,92.9211,VALID,0,VALID,23.8378,VALID,41,VALID,0.467969,
2009-05-06, 00:01:04,VALID,1001.36,VALID,0,VALID,93.0508,VALID,0,VALID,23.8201,VALID,41,VALID,0.597266,
2009-05-06, 00:02:04,VALID,1001.4,VALID,0,VALID,93.1882,VALID,0,VALID,23.8396,VALID,41,VALID,0.590234,
2009-05-06, 00:03:04,VALID,1001.41,VALID,0,VALID,93.2263,VALID,0,VALID,23.8183,VALID,41,VALID,0.570703,
2009-05-06, 00:04:04,VALID,1001.39,VALID,0,VALID,93.2111,VALID,0,VALID,23.7793,VALID,41,VALID,0.464453,
2009-05-06, 00:05:04,VALID,1001.39,VALID,0,VALID,93.4018,VALID,0,VALID,23.7793,VALID,41,VALID,0.563672,
2009-05-06, 00:06:04,VALID,1001.39,VALID,0,VALID,93.4781,VALID,0,VALID,23.7988,VALID,41,VALID,0.582031,
2009-05-06, 00:07:04,VALID,1001.39,VALID,0,VALID,93.4628,VALID,0,VALID,23.8006,VALID,41,VALID,0.592578,
2009-05-06, 00:08:04,VALID,1001.39,VALID,0,VALID,93.4094,VALID,0,VALID,23.7793,VALID,41,VALID,0.683984,
2009-05-06, 00:09:04,VALID,1001.4,VALID,0,VALID,93.3713,VALID,0,VALID,23.7597,VALID,41,VALID,0.634375,
2009-05-06, 00:10:04,VALID,1001.38,VALID,0,VALID,93.4781,VALID,0,VALID,23.7793,VALID,41,VALID,0.784766,
2009-05-06, 00:11:04,VALID,1001.39,VALID,0,VALID,93.4018,VALID,0,VALID,23.7793,VALID,41,VALID,0.885547,
2009-05-06, 00:12:04,VALID,1001.41,VALID,0,VALID,93.4018,VALID,0,VALID,23.8006,VALID,39,VALID,0.920703,
2009-05-06, 00:13:04,VALID,1001.38,VALID,0,VALID,93.4323,VALID,0,VALID,23.7597,VALID,36,VALID,0.9375,
2009-05-06, 00:14:04,VALID,1001.36,VALID,0,VALID,93.4247,VALID,0,VALID,23.7811,VALID,36,VALID,0.884766,
2009-05-06, 00:15:04,VALID,1001.38,VALID,0,VALID,93.4552,VALID,0,VALID,23.7597,VALID,36,VALID,0.851563,
2009-05-06, 00:16:04,VALID,1001.37,VALID,0,VALID,93.44,VALID,0,VALID,23.7402,VALID,36,VALID,0.625391,
2009-05-06, 00:17:04,VALID,1001.34,VALID,0,VALID,93.4934,VALID,0,VALID,23.7402,VALID,36,VALID,0.615625,
2009-05-06, 00:18:04,VALID,1001.33,VALID,0,VALID,93.5697,VALID,0,VALID,23.7402,VALID,36,VALID,0.554297,
2009-05-06, 00:19:04,VALID,1001.35,VALID,0,VALID,93.5544,VALID,0,VALID,23.742,VALID,36,VALID,0.478906,
2009-05-06, 00:20:04,VALID,1001.35,VALID,0,VALID,93.5086,VALID,0,VALID,23.7012,VALID,36,VALID,0.408984,
2009-05-06, 00:21:04,VALID,1001.34,VALID,0,VALID,93.4781,VALID,0,VALID,23.703,VALID,36,VALID,0.480469,
2009-05-06, 00:22:04,VALID,1001.31,VALID,0,VALID,93.4934,VALID,0,VALID,23.6817,VALID,36,VALID,0.505859,
2009-05-06, 00:23:04,VALID,1001.3,VALID,0,VALID,93.4934,VALID,0.112286,VALID,23.6604,VALID,36,VALID,0.503516,
2009-05-06, 00:24:04,VALID,1001.28,VALID,0,VALID,93.6002,VALID,0.112286,VALID,23.6604,VALID,36,VALID,0.487109,
2009-05-06, 00:25:04,VALID,1001.25,VALID,0,VALID,93.7223,VALID,0.112286,VALID,23.6604,VALID,36,VALID,0.527734,
2009-05-06, 00:26:04,VALID,1001.23,VALID,0,VALID,93.7985,VALID,0,VALID,23.6799,VALID,36,VALID,0.596875,
2009-05-06, 00:27:04,VALID,1001.22,VALID,0,VALID,93.9588,VALID,0.112286,VALID,23.6994,VALID,36,VALID,0.594922,
2009-05-06, 00:28:04,VALID,1001.21,VALID,0,VALID,94.0427,VALID,0.112286,VALID,23.7579,VALID,36,VALID,0.579687,
2009-05-06, 00:29:04,VALID,1001.19,VALID,0,VALID,93.9435,VALID,0.112286,VALID,23.7775,VALID,36,VALID,0.455078,
2009-05-06, 00:30:04,VALID,1001.19,VALID,0,VALID,93.7375,VALID,0.112286,VALID,23.7579,VALID,36,VALID,0.533984,
2009-05-06, 00:31:04,VALID,1001.19,VALID,0,VALID,93.7604,VALID,0,VALID,23.7775,VALID,36,VALID,0.464063,
2009-05-06, 00:32:04,VALID,1001.18,VALID,0,VALID,93.6307,VALID,0.112286,VALID,23.7775,VALID,36,VALID,0.420312,
2009-05-06, 00:33:04,VALID,1001.16,VALID,0,VALID,93.7909,VALID,0.112286,VALID,23.8165,VALID,36,VALID,0.264453,
2009-05-06, 00:34:04,VALID,1001.14,VALID,0,VALID,93.7299,VALID,0.112286,VALID,23.8573,VALID,36,VALID,0.288672,
2009-05-06, 00:35:04,VALID,1001.13,VALID,0,VALID,93.707,VALID,0.112286,VALID,23.8573,VALID,36,VALID,0.196484,
2009-05-06, 00:36:04,VALID,1001.12,VALID,0,VALID,93.6765,VALID,0.112286,VALID,23.8768,VALID,36,VALID,0.335938,
2009-05-06, 00:37:04,VALID,1001.08,VALID,0,VALID,93.6765,VALID,0.112286,VALID,23.9354,VALID,36,VALID,0.148438,
2009-05-06, 00:38:04,VALID,1001.07,VALID,0,VALID,93.4705,VALID,0,VALID,23.8963,VALID,36,VALID,0.267188,
2009-05-06, 00:39:04,VALID,1001.08,VALID,0,VALID,93.3942,VALID,0,VALID,23.8768,VALID,36,VALID,0.232422,
2009-05-06, 00:40:04,VALID,1001.04,VALID,0,VALID,93.3789,VALID,0,VALID,23.8768,VALID,36,VALID,0.198047,
2009-05-06, 00:41:04,VALID,1001.02,VALID,0,VALID,93.3331,VALID,0,VALID,23.8982,VALID,36,VALID,0.178906,
2009-05-06, 00:42:04,VALID,1001.01,VALID,0,VALID,93.4171,VALID,0,VALID,23.8963,VALID,36,VALID,0.318359,
2009-05-06, 00:43:04,VALID,1000.99,VALID,0,VALID,93.3942,VALID,0,VALID,23.9177,VALID,36,VALID,0.160547,
2009-05-06, 00:44:04,VALID,1001,VALID,0,VALID,93.4171,VALID,0,VALID,23.9177,VALID,36,VALID,0.252734,
2009-05-06, 00:45:04,VALID,1000.96,VALID,0,VALID,93.5163,VALID,0,VALID,23.9159,VALID,36,VALID,0.313672,
2009-05-06, 00:46:04,VALID,1000.97,VALID,0,VALID,93.3637,VALID,0,VALID,23.9372,VALID,36,VALID,0.376172,
2009-05-06, 00:47:04,VALID,1000.96,VALID,0,VALID,93.3637,VALID,0,VALID,23.9354,VALID,105,VALID,0.515625,
2009-05-06, 00:48:04,VALID,1000.96,VALID,0,VALID,93.2263,VALID,0,VALID,23.9354,VALID,105,VALID,0.4875,
2009-05-06, 00:49:04,VALID,1000.95,VALID,0,VALID,93.3255,VALID,0,VALID,23.9762,VALID,105,VALID,0.870703,
2009-05-06, 00:50:04,VALID,1000.91,VALID,0,VALID,93.1348,VALID,0,VALID,23.9957,VALID,105,VALID,0.803516,
2009-05-06, 00:51:04,VALID,1000.87,VALID,0,VALID,93.0661,VALID,0,VALID,23.9939,VALID,106,VALID,0.939844,
2009-05-06, 00:52:04,VALID,1000.87,VALID,0,VALID,92.9059,VALID,0,VALID,24.0329,VALID,115,VALID,0.887891,
2009-05-06, 00:53:04,VALID,1000.91,VALID,0,VALID,92.6617,VALID,0,VALID,24.0543,VALID,115,VALID,0.697656,
2009-05-06, 00:54:04,VALID,1000.91,VALID,0,VALID,92.6236,VALID,0,VALID,24.0525,VALID,113,VALID,0.795703,
2009-05-06, 00:55:04,VALID,1000.92,VALID,0,VALID,92.5854,VALID,0,VALID,24.0525,VALID,111,VALID,0.657812,
2009-05-06, 00:56:04,VALID,1000.94,VALID,0,VALID,92.4786,VALID,0,VALID,24.0525,VALID,110,VALID,0.673437,
2009-05-06, 00:57:04,VALID,1000.92,VALID,0,VALID,92.5015,VALID,0,VALID,24.0525,VALID,113,VALID,0.773438,
2009-05-06, 00:58:04,VALID,1000.91,VALID,0,VALID,92.5397,VALID,0,VALID,24.0933,VALID,117,VALID,0.714453,
2009-05-06, 00:59:04,VALID,1000.91,VALID,0,VALID,92.5702,VALID,0,VALID,24.0915,VALID,122,VALID,0.642578,
2009-05-06, 01:00:04,VALID,1000.86,VALID,0,VALID,92.4481,VALID,0,VALID,24.0915,VALID,119,VALID,0.785547,
2009-05-06, 01:01:04,VALID,1000.89,VALID,0,VALID,92.41,VALID,0,VALID,24.1128,VALID,116,VALID,0.675391,
2009-05-06, 01:02:04,VALID,1000.9,VALID,0,VALID,92.3794,VALID,0,VALID,24.0915,VALID,116,VALID,0.414063,
2009-05-06, 01:03:04,VALID,1000.92,VALID,0,VALID,92.3642,VALID,0,VALID,24.1324,VALID,116,VALID,0.465234,
2009-05-06, 01:04:04,VALID,1000.91,VALID,0,VALID,92.2879,VALID,0,VALID,24.1128,VALID,116,VALID,0.4125,
2009-05-06, 01:05:04,VALID,1000.91,VALID,0,VALID,92.0895,VALID,0,VALID,24.1128,VALID,116,VALID,0.430469,
2009-05-06, 01:06:04,VALID,1000.88,VALID,0,VALID,92.0209,VALID,0,VALID,24.1324,VALID,99,VALID,0.571484,
2009-05-06, 01:07:04,VALID,1000.89,VALID,0,VALID,91.8988,VALID,0,VALID,24.1305,VALID,92,VALID,0.530078,
2009-05-06, 01:08:04,VALID,1000.86,VALID,0,VALID,91.5478,VALID,0,VALID,24.1324,VALID,92,VALID,0.678125,
2009-05-06, 01:09:04,VALID,1000.83,VALID,0,VALID,91.3723,VALID,0,VALID,24.1305,VALID,91,VALID,0.713672,
2009-05-06, 01:10:04,VALID,1000.82,VALID,0,VALID,91.1968,VALID,0,VALID,24.111,VALID,91,VALID,0.285156,
2009-05-06, 01:11:04,VALID,1000.82,VALID,0,VALID,91.3723,VALID,0,VALID,24.111,VALID,91,VALID,0.490625,
2009-05-06, 01:12:04,VALID,1000.77,VALID,0,VALID,91.4028,VALID,0,VALID,24.0915,VALID,91,VALID,0.132813,
2009-05-06, 01:13:04,VALID,1000.72,VALID,0,VALID,91.3723,VALID,0,VALID,24.0915,VALID,91,VALID,0.196875,
2009-05-06, 01:14:04,VALID,1000.68,VALID,0,VALID,91.2731,VALID,0,VALID,24.0915,VALID,91,VALID,0.107422,
2009-05-06, 01:15:04,VALID,1000.69,VALID,0,VALID,91.3418,VALID,0,VALID,24.0933,VALID,91,VALID,0.28125,
2009-05-06, 01:16:04,VALID,1000.67,VALID,0,VALID,91.4486,VALID,0,VALID,24.0933,VALID,90,VALID,0.371094,
2009-05-06, 01:17:04,VALID,1000.64,VALID,0,VALID,91.3189,VALID,0,VALID,24.0933,VALID,90,VALID,0.462891,
2009-05-06, 01:18:04,VALID,1000.62,VALID,0,VALID,91.1968,VALID,0,VALID,24.0525,VALID,84,VALID,0.465234,
2009-05-06, 01:19:04,VALID,1000.59,VALID,0,VALID,91.5631,VALID,0,VALID,24.0329,VALID,31,VALID,0.724219,
2009-05-06, 01:20:04,VALID,1000.62,VALID,0,VALID,91.3494,VALID,0,VALID,24.0348,VALID,30,VALID,0.603516,
2009-05-06, 01:21:04,VALID,1000.58,VALID,0,VALID,92.0285,VALID,0,VALID,24.0153,VALID,22,VALID,0.860937,
2009-05-06, 01:22:04,VALID,1000.56,VALID,0,VALID,92.2268,VALID,0,VALID,24.0134,VALID,21,VALID,0.759766,
2009-05-06, 01:23:04,VALID,1000.55,VALID,0,VALID,91.9827,VALID,0,VALID,24.0134,VALID,21,VALID,0.93125,
2009-05-06, 01:24:04,VALID,1000.54,VALID,0,VALID,91.7843,VALID,0,VALID,23.9762,VALID,21,VALID,0.972656,
2009-05-06, 01:25:04,VALID,1000.51,VALID,0,VALID,91.6241,VALID,0,VALID,23.9372,VALID,21,VALID,1.06641,
2009-05-06, 01:26:04,VALID,1000.48,VALID,0,VALID,91.7538,VALID,0,VALID,23.8573,VALID,22,VALID,1.06797,
2009-05-06, 01:27:04,VALID,1000.44,VALID,0,VALID,92.0666,VALID,0,VALID,23.8183,VALID,22,VALID,0.958984,
2009-05-06, 01:28:04,VALID,1000.46,VALID,0,VALID,92.3489,VALID,0,VALID,23.7988,VALID,23,VALID,0.993359,
2009-05-06, 01:29:04,VALID,1000.43,VALID,0,VALID,92.6465,VALID,0,VALID,23.7988,VALID,27,VALID,0.988281,
2009-05-06, 01:30:04,VALID,1000.42,VALID,0,VALID,92.822,VALID,0,VALID,23.8006,VALID,34,VALID,1.08359,
2009-05-06, 01:31:04,VALID,1000.41,VALID,0,VALID,92.9059,VALID,0,VALID,23.8183,VALID,38,VALID,1.05313,
2009-05-06, 01:32:04,VALID,1000.42,VALID,0,VALID,92.9364,VALID,0,VALID,23.8183,VALID,39,VALID,0.994922,
2009-05-06, 01:33:04,VALID,1000.41,VALID,0,VALID,92.9059,VALID,0,VALID,23.8396,VALID,42,VALID,0.883984,
2009-05-06, 01:34:04,VALID,1000.39,VALID,0,VALID,92.9745,VALID,0,VALID,23.8183,VALID,42,VALID,0.825,
2009-05-06, 01:35:04,VALID,1000.39,VALID,0,VALID,92.9593,VALID,0,VALID,23.8591,VALID,42,VALID,0.583984,
2009-05-06, 01:36:04,VALID,1000.37,VALID,0,VALID,92.9593,VALID,0,VALID,23.8378,VALID,58,VALID,0.628906,
2009-05-06, 01:37:04,VALID,1000.34,VALID,0,VALID,92.8906,VALID,0,VALID,23.8378,VALID,58,VALID,0.628516,
2009-05-06, 01:38:04,VALID,1000.32,VALID,0,VALID,92.8525,VALID,0,VALID,23.8573,VALID,58,VALID,0.539844,
2009-05-06, 01:39:04,VALID,1000.32,VALID,0,VALID,92.8983,VALID,0,VALID,23.8982,VALID,58,VALID,0.578906,
2009-05-06, 01:40:04,VALID,1000.32,VALID,0,VALID,92.8067,VALID,0,VALID,23.8573,VALID,58,VALID,0.554297,
2009-05-06, 01:41:04,VALID,1000.29,VALID,0,VALID,92.6617,VALID,0,VALID,23.8982,VALID,58,VALID,0.588672,
2009-05-06, 01:42:04,VALID,1000.31,VALID,0,VALID,92.5702,VALID,0,VALID,23.8768,VALID,49,VALID,0.708594,
2009-05-06, 01:43:04,VALID,1000.28,VALID,0,VALID,92.4252,VALID,0,VALID,23.8591,VALID,46,VALID,0.792969,
2009-05-06, 01:44:04,VALID,1000.26,VALID,0,VALID,92.5473,VALID,0,VALID,23.8378,VALID,43,VALID,0.864453,
2009-05-06, 01:45:04,VALID,1000.23,VALID,0,VALID,92.5091,VALID,0,VALID,23.8201,VALID,42,VALID,0.873438,
2009-05-06, 01:46:04,VALID,1000.2,VALID,0,VALID,92.4481,VALID,0,VALID,23.7811,VALID,42,VALID,0.735547,
2009-05-06, 01:47:04,VALID,1000.2,VALID,0,VALID,92.7609,VALID,0,VALID,23.7811,VALID,42,VALID,0.611719,
2009-05-06, 01:48:04,VALID,1000.2,VALID,0,VALID,92.7151,VALID,0,VALID,23.7402,VALID,42,VALID,0.601563,
2009-05-06, 01:49:04,VALID,1000.21,VALID,0,VALID,92.7838,VALID,0,VALID,23.7207,VALID,42,VALID,0.487109,
2009-05-06, 01:50:04,VALID,1000.18,VALID,0,VALID,92.7609,VALID,0,VALID,23.6817,VALID,42,VALID,0.483984,
2009-05-06, 01:51:04,VALID,1000.2,VALID,0,VALID,92.944,VALID,0,VALID,23.6622,VALID,42,VALID,0.471875,
2009-05-06, 01:52:04,VALID,1000.27,VALID,0,VALID,92.944,VALID,0,VALID,23.664,VALID,42,VALID,0.628906,
2009-05-06, 01:53:04,VALID,1000.22,VALID,0,VALID,93.2263,VALID,0,VALID,23.6622,VALID,42,VALID,0.693359,
2009-05-06, 01:54:04,VALID,1000.25,VALID,0,VALID,93.4323,VALID,0,VALID,23.6817,VALID,42,VALID,0.673437,
2009-05-06, 01:55:04,VALID,1000.21,VALID,0,VALID,93.5315,VALID,0,VALID,23.7012,VALID,42,VALID,0.593359,
2009-05-06, 01:56:04,VALID,1000.22,VALID,0,VALID,93.3103,VALID,0,VALID,23.6799,VALID,42,VALID,0.578906,
2009-05-06, 01:57:04,VALID,1000.2,VALID,0,VALID,93.1424,VALID,0,VALID,23.6817,VALID,42,VALID,0.537109,
2009-05-06, 01:58:04,VALID,1000.16,VALID,0,VALID,93.1119,VALID,0,VALID,23.6622,VALID,42,VALID,0.476953,
2009-05-06, 01:59:04,VALID,1000.18,VALID,0,VALID,93.1271,VALID,0,VALID,23.6427,VALID,42,VALID,0.582422,
2009-05-06, 02:00:04,VALID,1000.13,VALID,0,VALID,93.2721,VALID,0,VALID,23.6214,VALID,42,VALID,0.521094,
2009-05-06, 02:01:04,VALID,1000.16,VALID,0,VALID,93.44,VALID,0,VALID,23.6622,VALID,42,VALID,0.584766,
2009-05-06, 02:02:04,VALID,1000.15,VALID,0,VALID,93.4552,VALID,0,VALID,23.6817,VALID,42,VALID,0.664453,
2009-05-06, 02:03:04,VALID,1000.12,VALID,0,VALID,93.4323,VALID,0.112286,VALID,23.6799,VALID,42,VALID,0.753516,
2009-05-06, 02:04:04,VALID,1000.15,VALID,0,VALID,93.3789,VALID,0,VALID,23.6817,VALID,42,VALID,0.775,
2009-05-06, 02:05:04,VALID,1000.15,VALID,0,VALID,93.4247,VALID,0,VALID,23.6817,VALID,41,VALID,0.755469,
2009-05-06, 02:06:04,VALID,1000.13,VALID,0,VALID,93.3942,VALID,0,VALID,23.7012,VALID,41,VALID,0.643359,
2009-05-06, 02:07:04,VALID,1000.15,VALID,0,VALID,93.2492,VALID,0,VALID,23.6817,VALID,41,VALID,0.620313,
2009-05-06, 02:08:04,VALID,1000.17,VALID,0,VALID,93.1958,VALID,0,VALID,23.6445,VALID,41,VALID,0.623438,
2009-05-06, 02:09:04,VALID,1000.16,VALID,0,VALID,93.1119,VALID,0,VALID,23.6445,VALID,41,VALID,0.5875,
2009-05-06, 02:10:04,VALID,1000.14,VALID,0,VALID,93.3103,VALID,0,VALID,23.6232,VALID,41,VALID,0.652344,
2009-05-06, 02:11:04,VALID,1000.12,VALID,0,VALID,93.5239,VALID,0,VALID,23.6445,VALID,41,VALID,0.710938,
2009-05-06, 02:12:04,VALID,1000.12,VALID,0,VALID,93.5849,VALID,0,VALID,23.664,VALID,41,VALID,0.684375,
2009-05-06, 02:13:04,VALID,1000.09,VALID,0,VALID,93.5849,VALID,0,VALID,23.6835,VALID,41,VALID,0.674609,
2009-05-06, 02:14:04,VALID,1000.1,VALID,0,VALID,93.5468,VALID,0,VALID,23.6835,VALID,41,VALID,0.690234,
2009-05-06, 02:15:04,VALID,1000.09,VALID,0,VALID,93.4018,VALID,0,VALID,23.7012,VALID,41,VALID,0.667969,
2009-05-06, 02:16:04,VALID,1000.08,VALID,0,VALID,93.1805,VALID,0,VALID,23.7225,VALID,41,VALID,0.831641,
2009-05-06, 02:17:04,VALID,1000.06,VALID,0,VALID,93.15,VALID,0,VALID,23.7012,VALID,41,VALID,0.86875,
2009-05-06, 02:18:04,VALID,1000.04,VALID,0,VALID,92.8906,VALID,0,VALID,23.7207,VALID,41,VALID,0.990234,
2009-05-06, 02:19:04,VALID,1000.01,VALID,0,VALID,92.7762,VALID,0,VALID,23.7225,VALID,45,VALID,0.927734,
2009-05-06, 02:20:04,VALID,1000.03,VALID,0,VALID,92.5702,VALID,0,VALID,23.6817,VALID,53,VALID,0.902734,
2009-05-06, 02:21:04,VALID,1000.03,VALID,0,VALID,92.4176,VALID,0,VALID,23.6835,VALID,58,VALID,0.830469,
2009-05-06, 02:22:04,VALID,1000,VALID,0,VALID,92.5854,VALID,0,VALID,23.664,VALID,58,VALID,0.828125,
2009-05-06, 02:23:04,VALID,999.993,VALID,0,VALID,92.5702,VALID,0,VALID,23.6445,VALID,58,VALID,0.73125,
2009-05-06, 02:24:04,VALID,999.99,VALID,0,VALID,92.5931,VALID,0,VALID,23.625,VALID,58,VALID,0.620313,
2009-05-06, 02:25:04,VALID,999.979,VALID,0,VALID,92.6236,VALID,0,VALID,23.5646,VALID,58,VALID,0.719531,
2009-05-06, 02:26:04,VALID,999.94,VALID,0,VALID,92.9135,VALID,0,VALID,23.5646,VALID,58,VALID,0.746484,
2009-05-06, 02:27:04,VALID,999.894,VALID,0,VALID,92.9745,VALID,0,VALID,23.5646,VALID,58,VALID,0.690625,
2009-05-06, 02:28:04,VALID,999.883,VALID,0,VALID,93.0585,VALID,0,VALID,23.5859,VALID,60,VALID,0.608203,
2009-05-06, 02:29:04,VALID,999.874,VALID,0,VALID,93.1729,VALID,0,VALID,23.5859,VALID,60,VALID,0.557422,
2009-05-06, 02:30:04,VALID,999.873,VALID,0,VALID,93.1424,VALID,0,VALID,23.5646,VALID,60,VALID,0.512891,
2009-05-06, 02:31:04,VALID,999.87,VALID,0,VALID,93.2263,VALID,0,VALID,23.5841,VALID,60,VALID,0.376953,
2009-05-06, 02:32:04,VALID,999.85,VALID,0,VALID,93.15,VALID,0,VALID,23.5859,VALID,60,VALID,0.417578,
2009-05-06, 02:33:04,VALID,999.845,VALID,0,VALID,93.1195,VALID,0,VALID,23.5646,VALID,60,VALID,0.495313,
2009-05-06, 02:34:04,VALID,999.837,VALID,0,VALID,93.295,VALID,0,VALID,23.5664,VALID,60,VALID,0.566797,
2009-05-06, 02:35:04,VALID,999.827,VALID,0,VALID,93.4323,VALID,0,VALID,23.6054,VALID,60,VALID,0.623828,
2009-05-06, 02:36:04,VALID,999.793,VALID,0,VALID,93.356,VALID,0,VALID,23.5841,VALID,60,VALID,0.652344,
2009-05-06, 02:37:04,VALID,999.815,VALID,0,VALID,93.4094,VALID,0,VALID,23.6036,VALID,60,VALID,0.596875,
2009-05-06, 02:38:04,VALID,999.841,VALID,0,VALID,93.4018,VALID,0,VALID,23.6445,VALID,60,VALID,0.567187,
2009-05-06, 02:39:04,VALID,999.836,VALID,0,VALID,93.3408,VALID,0,VALID,23.6427,VALID,60,VALID,0.476563,
2009-05-06, 02:40:04,VALID,999.856,VALID,0,VALID,93.1958,VALID,0,VALID,23.6427,VALID,60,VALID,0.462891,
2009-05-06, 02:41:04,VALID,999.833,VALID,0,VALID,93.1195,VALID,0,VALID,23.6445,VALID,60,VALID,0.532031,
2009-05-06, 02:42:04,VALID,999.831,VALID,0,VALID,93.0661,VALID,0,VALID,23.6232,VALID,60,VALID,0.563281,
2009-05-06, 02:43:04,VALID,999.839,VALID,0,VALID,93.1119,VALID,0,VALID,23.6445,VALID,60,VALID,0.598828,
2009-05-06, 02:44:04,VALID,999.822,VALID,0,VALID,93.1043,VALID,0,VALID,23.625,VALID,60,VALID,0.696875,
2009-05-06, 02:45:04,VALID,999.784,VALID,0,VALID,93.1577,VALID,0,VALID,23.6445,VALID,60,VALID,0.710156,
2009-05-06, 02:46:04,VALID,999.785,VALID,0,VALID,93.0966,VALID,0,VALID,23.6232,VALID,61,VALID,0.722266,
2009-05-06, 02:47:04,VALID,999.797,VALID,0,VALID,93.028,VALID,0,VALID,23.6232,VALID,61,VALID,0.698047,
2009-05-06, 02:48:04,VALID,999.812,VALID,0,VALID,92.9745,VALID,0,VALID,23.6232,VALID,61,VALID,0.589063,
2009-05-06, 02:49:04,VALID,999.819,VALID,0,VALID,92.9517,VALID,0,VALID,23.6232,VALID,63,VALID,0.540234,
2009-05-06, 02:50:04,VALID,999.827,VALID,0,VALID,92.8754,VALID,0,VALID,23.6036,VALID,69,VALID,0.412109,
2009-05-06, 02:51:04,VALID,999.83,VALID,0,VALID,92.944,VALID,0,VALID,23.625,VALID,69,VALID,0.450391,
2009-05-06, 02:52:04,VALID,999.796,VALID,0,VALID,93.0356,VALID,0,VALID,23.625,VALID,69,VALID,0.463281,
2009-05-06, 02:53:04,VALID,999.782,VALID,0,VALID,93.1653,VALID,0,VALID,23.6232,VALID,84,VALID,0.476172,
2009-05-06, 02:54:04,VALID,999.776,VALID,0,VALID,93.2797,VALID,0,VALID,23.6232,VALID,107,VALID,0.522266,
2009-05-06, 02:55:04,VALID,999.768,VALID,0,VALID,93.356,VALID,0,VALID,23.6427,VALID,121,VALID,0.728516,
2009-05-06, 02:56:04,VALID,999.771,VALID,0,VALID,93.3026,VALID,0,VALID,23.6427,VALID,142,VALID,0.865234,
2009-05-06, 02:57:04,VALID,999.766,VALID,0,VALID,93.3331,VALID,0,VALID,23.6817,VALID,143,VALID,0.807422,
2009-05-06, 02:58:04,VALID,999.795,VALID,0,VALID,93.3789,VALID,0,VALID,23.7207,VALID,161,VALID,0.998828,
2009-05-06, 02:59:04,VALID,999.785,VALID,0,VALID,93.1119,VALID,0,VALID,23.7402,VALID,159,VALID,1.12266,
2009-05-06, 03:00:04,VALID,999.802,VALID,0,VALID,92.6923,VALID,0,VALID,23.8006,VALID,153,VALID,0.858203,
2009-05-06, 03:01:04,VALID,999.839,VALID,0,VALID,92.1734,VALID,0,VALID,23.8378,VALID,143,VALID,1.44062,
2009-05-06, 03:02:04,VALID,999.826,VALID,0,VALID,91.8911,VALID,0,VALID,23.8963,VALID,136,VALID,1.03828,
2009-05-06, 03:03:04,VALID,999.821,VALID,0,VALID,91.6851,VALID,0,VALID,23.9159,VALID,143,VALID,1.13125,
2009-05-06, 03:04:04,VALID,999.811,VALID,0,VALID,91.5783,VALID,0,VALID,23.9549,VALID,142,VALID,1.1168,
2009-05-06, 03:05:04,VALID,999.812,VALID,0,VALID,91.4868,VALID,0.112286,VALID,23.9762,VALID,140,VALID,0.628906,
2009-05-06, 03:06:04,VALID,999.821,VALID,0,VALID,91.441,VALID,0,VALID,23.9744,VALID,129,VALID,0.883594,
2009-05-06, 03:07:04,VALID,999.821,VALID,0,VALID,91.4791,VALID,0,VALID,23.9939,VALID,130,VALID,0.913281,
2009-05-06, 03:08:04,VALID,999.828,VALID,0,VALID,91.5173,VALID,0,VALID,23.9939,VALID,132,VALID,0.93125,
2009-05-06, 03:09:04,VALID,999.831,VALID,0,VALID,91.5554,VALID,0,VALID,24.0134,VALID,125,VALID,0.978516,
2009-05-06, 03:10:04,VALID,999.832,VALID,0,VALID,91.4868,VALID,0,VALID,24.0134,VALID,128,VALID,1.10039,
2009-05-06, 03:11:04,VALID,999.839,VALID,0,VALID,91.38,VALID,0,VALID,24.0116,VALID,132,VALID,1.13164,
2009-05-06, 03:12:04,VALID,999.842,VALID,0,VALID,91.2503,VALID,0,VALID,24.0525,VALID,133,VALID,0.977734,
2009-05-06, 03:13:04,VALID,999.803,VALID,0,VALID,90.9832,VALID,0,VALID,24.0525,VALID,135,VALID,1.39102,
2009-05-06, 03:14:04,VALID,999.802,VALID,0,VALID,90.7772,VALID,0,VALID,24.0915,VALID,126,VALID,0.964844,
2009-05-06, 03:15:04,VALID,999.769,VALID,0,VALID,90.5483,VALID,0,VALID,24.1305,VALID,132,VALID,1.2,
2009-05-06, 03:16:04,VALID,999.781,VALID,0,VALID,90.2889,VALID,0,VALID,24.15,VALID,127,VALID,1.31875,
2009-05-06, 03:17:04,VALID,999.767,VALID,0,VALID,90.1745,VALID,0,VALID,24.1696,VALID,132,VALID,1.36406,
2009-05-06, 03:18:04,VALID,999.777,VALID,0,VALID,90.0524,VALID,0,VALID,24.2104,VALID,133,VALID,1.20938,
2009-05-06, 03:19:04,VALID,999.8,VALID,0,VALID,90.0066,VALID,0,VALID,24.2299,VALID,137,VALID,1.29531,
2009-05-06, 03:20:04,VALID,999.797,VALID,0,VALID,89.8083,VALID,0,VALID,24.2086,VALID,138,VALID,1.53789,
2009-05-06, 03:21:04,VALID,999.81,VALID,0,VALID,89.7549,VALID,0,VALID,24.2281,VALID,136,VALID,1.43945,
2009-05-06, 03:22:04,VALID,999.813,VALID,0,VALID,89.6328,VALID,0,VALID,24.2086,VALID,136,VALID,1.63555,
2009-05-06, 03:23:04,VALID,999.809,VALID,0,VALID,89.6633,VALID,0,VALID,24.2281,VALID,135,VALID,1.25,
2009-05-06, 03:24:04,VALID,999.871,VALID,0,VALID,89.648,VALID,0,VALID,24.2086,VALID,138,VALID,1.28945,
2009-05-06, 03:25:04,VALID,999.853,VALID,0,VALID,89.732,VALID,0,VALID,24.2086,VALID,135,VALID,1.46094,
2009-05-06, 03:26:04,VALID,999.868,VALID,0,VALID,89.648,VALID,0,VALID,24.1891,VALID,138,VALID,1.63047,
2009-05-06, 03:27:04,VALID,999.865,VALID,0,VALID,89.7014,VALID,0,VALID,24.1909,VALID,139,VALID,1.55,
2009-05-06, 03:28:04,VALID,999.877,VALID,0,VALID,89.7091,VALID,0,VALID,24.1696,VALID,136,VALID,1.64961,
2009-05-06, 03:29:04,VALID,999.848,VALID,0,VALID,89.7167,VALID,0,VALID,24.1696,VALID,138,VALID,1.50391,
2009-05-06, 03:30:04,VALID,999.834,VALID,0,VALID,89.6709,VALID,0,VALID,24.1696,VALID,139,VALID,1.58398,
2009-05-06, 03:31:04,VALID,999.794,VALID,0,VALID,89.6175,VALID,0,VALID,24.1909,VALID,133,VALID,1.67578,
2009-05-06, 03:32:04,VALID,999.805,VALID,0,VALID,89.4802,VALID,0,VALID,24.1891,VALID,140,VALID,1.31484,
2009-05-06, 03:33:04,VALID,999.827,VALID,0,VALID,89.5031,VALID,0,VALID,24.1891,VALID,127,VALID,1.32266,
2009-05-06, 03:34:05,VALID,999.794,VALID,0,VALID,89.587,VALID,0,VALID,24.1891,VALID,129,VALID,1.1707,
2009-05-06, 03:35:05,VALID,999.796,VALID,0,VALID,89.6023,VALID,0,VALID,24.1696,VALID,125,VALID,1.13789,
2009-05-06, 03:36:05,VALID,999.78,VALID,0,VALID,89.6404,VALID,0,VALID,24.1696,VALID,127,VALID,0.978125,
2009-05-06, 03:37:05,VALID,999.811,VALID,0,VALID,89.5946,VALID,0,VALID,24.15,VALID,139,VALID,0.914844,
2009-05-06, 03:38:05,VALID,999.816,VALID,0,VALID,89.6023,VALID,0,VALID,24.1714,VALID,123,VALID,0.746484,
2009-05-06, 03:39:05,VALID,999.818,VALID,0,VALID,89.6175,VALID,0,VALID,24.1305,VALID,125,VALID,0.725,
2009-05-06, 03:40:05,VALID,999.823,VALID,0,VALID,89.5412,VALID,0,VALID,24.111,VALID,122,VALID,0.528516,
2009-05-06, 03:41:05,VALID,999.829,VALID,0,VALID,89.3581,VALID,0,VALID,24.111,VALID,122,VALID,0.409766,
2009-05-06, 03:42:05,VALID,999.841,VALID,0,VALID,89.732,VALID,0,VALID,24.072,VALID,72,VALID,0.501953,
2009-05-06, 03:43:05,VALID,999.87,VALID,0,VALID,89.9532,VALID,0,VALID,24.0543,VALID,63,VALID,0.56875,
2009-05-06, 03:44:05,VALID,999.839,VALID,0,VALID,90.144,VALID,0,VALID,24.0134,VALID,63,VALID,0.446484,
2009-05-06, 03:45:05,VALID,999.863,VALID,0,VALID,90.144,VALID,0,VALID,23.9939,VALID,64,VALID,0.425,